KB1YYC Weather Reports


time (UTC)temp
C
wind
direction
speed
KPH
gust
KPH
rain 1hr
cm
rain 24hr
cm
rain mn
cm
humidity
%
barometer
mb
20260504233748 17 285 0.0 0.0 0.00 0.00 0.00 40 1006.3
20260504233243 18 285 0.0 0.0 0.00 0.00 0.00 40 1006.3
20260504232740 18 285 0.0 0.0 0.00 0.00 0.00 40 1006.2
20260504232237 19 285 0.0 1.6 0.00 0.00 0.00 38 1006.2
20260504231735 19 285 0.0 3.2 0.00 0.00 0.00 38 1006.0
20260504231231 20 285 0.0 0.0 0.00 0.00 0.00 37 1005.9
20260504230727 20 272 1.6 8.0 0.00 0.00 0.00 36 1005.7
20260504230226 20 277 3.2 3.2 0.00 0.00 0.00 35 1005.8
20260504225724 20 349 4.8 8.0 0.00 0.00 0.00 34 1005.7
20260504225220 20 323 4.8 8.0 0.00 0.00 0.00 35 1005.6
20260504224717 20 306 1.6 1.6 0.00 0.00 0.00 35 1005.4
20260504224214 20 297 0.0 3.2 0.00 0.00 0.00 35 1005.5
20260504223711 20 289 1.6 1.6 0.00 0.00 0.00 35 1005.6
20260504223206 20 275 0.0 1.6 0.00 0.00 0.00 36 1005.5
20260504222703 20 282 1.6 9.7 0.00 0.00 0.00 34 1005.6
20260504222200 20 262 0.0 3.2 0.00 0.00 0.00 35 1005.5
20260504221658 20 308 4.8 4.8 0.00 0.00 0.00 34 1005.5
20260504221155 20 278 1.6 11.3 0.00 0.00 0.00 33 1005.5
20260504220651 21 308 3.2 11.3 0.00 0.00 0.00 33 1005.5
20260504220149 21 271 1.6 4.8 0.00 0.00 0.00 33 1005.4
20260504215645 21 252 1.6 4.8 0.00 0.00 0.00 33 1005.6
20260504215142 20 309 8.0 11.3 0.00 0.00 0.00 33 1005.5
20260504214638 21 326 3.2 9.7 0.00 0.00 0.00 33 1005.4
20260504214134 21 252 3.2 8.0 0.00 0.00 0.00 33 1005.5
20260504213631 20 298 4.8 12.9 0.00 0.00 0.00 33 1005.5
20260504213128 20 279 3.2 9.7 0.00 0.00 0.00 32 1005.4
20260504212624 21 314 4.8 11.3 0.00 0.00 0.00 32 1005.4
20260504212121 21 299 4.8 8.0 0.00 0.00 0.00 33 1005.6
20260504211619 21 301 4.8 16.1 0.00 0.00 0.00 32 1005.3
20260504211115 21 333 8.0 11.3 0.00 0.00 0.00 32 1005.4
20260504210613 21 324 3.2 9.7 0.00 0.00 0.00 33 1005.2
20260504210109 21 267 6.4 9.7 0.00 0.00 0.00 31 1005.1
20260504205607 21 274 4.8 8.0 0.00 0.00 0.00 32 1005.3
20260504205104 21 285 1.6 4.8 0.00 0.00 0.00 33 1005.3
20260504204602 21 288 4.8 9.7 0.00 0.00 0.00 32 1005.3
20260504204101 21 306 4.8 9.7 0.00 0.00 0.00 33 1005.3
20260504203559 20 282 3.2 12.9 0.00 0.00 0.00 33 1005.3
20260504203056 20 278 1.6 9.7 0.00 0.00 0.00 34 1005.1
20260504202551 21 25 4.8 12.9 0.00 0.00 0.00 33 1005.1
20260504202048 21 296 1.6 4.8 0.00 0.00 0.00 33 1005.4
20260504201545 21 277 1.6 9.7 0.00 0.00 0.00 34 1005.5
20260504201043 20 321 6.4 9.7 0.00 0.00 0.00 35 1005.6
20260504200539 20 248 3.2 4.8 0.00 0.00 0.00 34 1005.6
20260504200036 20 284 6.4 12.9 0.00 0.00 0.00 34 1005.6
20260504195532 20 278 3.2 11.3 0.00 0.00 0.00 34 1005.3
20260504195029 20 275 8.0 11.3 0.00 0.00 0.00 34 1005.4
20260504194526 21 311 3.2 12.9 0.00 0.00 0.00 34 1005.3
20260504194021 21 319 9.7 14.5 0.00 0.00 0.00 34 1005.4
20260504193518 21 291 3.2 9.7 0.00 0.00 0.00 35 1005.5
20260504193017 21 307 1.6 9.7 0.00 0.00 0.00 35 1005.5
20260504192515 21 277 3.2 4.8 0.00 0.00 0.00 35 1005.5
20260504192013 21 300 6.4 9.7 0.00 0.00 0.00 35 1005.5
20260504191510 20 286 1.6 14.5 0.00 0.00 0.00 36 1005.5
20260504191006 20 312 8.0 9.7 0.00 0.00 0.00 37 1005.6
20260504190502 20 301 1.6 17.7 0.00 0.00 0.00 37 1005.6
20260504185958 20 268 1.6 8.0 0.00 0.00 0.00 36 1005.5
20260504185455 20 285 6.4 12.9 0.00 0.00 0.00 37 1005.6
20260504184952 19 325 6.4 9.7 0.00 0.00 0.00 37 1005.7
20260504184447 18 290 1.6 3.2 0.00 0.00 0.00 40 1005.8
20260504183943 18 326 4.8 4.8 0.00 0.00 0.00 39 1006.0
20260504183441 18 199 4.8 12.9 0.00 0.00 0.00 39 1006.1
20260504182939 18 336 1.6 4.8 0.00 0.00 0.00 39 1006.0
20260504182435 18 295 4.8 12.9 0.00 0.00 0.00 38 1006.0
20260504181933 18 359 4.8 8.0 0.00 0.00 0.00 39 1005.8
20260504181429 18 308 4.8 12.9 0.00 0.00 0.00 37 1005.7
20260504180928 18 300 4.8 9.7 0.00 0.00 0.00 37 1005.7
20260504180427 18 305 3.2 8.0 0.00 0.00 0.00 36 1005.7
20260504175924 19 276 3.2 8.0 0.00 0.00 0.00 35 1005.7
20260504175421 19 329 8.0 17.7 0.00 0.00 0.00 35 1005.9
20260504174919 18 254 4.8 9.7 0.00 0.00 0.00 36 1005.8
20260504174416 18 323 3.2 9.7 0.00 0.00 0.00 36 1006.0
20260504173913 18 350 8.0 8.0 0.00 0.00 0.00 35 1005.9
20260504173409 19 2 8.0 11.3 0.00 0.00 0.00 35 1005.9
20260504172907 19 317 6.4 9.7 0.00 0.00 0.00 35 1005.9
20260504172403 19 355 4.8 11.3 0.00 0.00 0.00 34 1005.8
20260504171900 20 252 4.8 16.1 0.00 0.00 0.00 34 1005.9
20260504171357 18 307 1.6 8.0 0.00 0.00 0.00 35 1005.6
20260504170854 18 340 4.8 9.7 0.00 0.00 0.00 34 1005.8
20260504170350 19 325 4.8 12.9 0.00 0.00 0.00 34 1005.7
20260504160309 20 292 1.6 3.2 0.00 0.00 0.00 36 1005.7
20260504150734 17 117 4.8 9.7 0.00 0.00 0.00 43 1006.7
20260504150231 16 267 1.6 8.0 0.00 0.00 0.00 49 1006.8
20260504141200 15 211 3.2 4.8 0.00 0.00 0.00 46 1007.3
20260504140657 15 235 3.2 4.8 0.00 0.00 0.00 46 1007.4
20260504140152 15 267 1.6 3.2 0.00 0.00 0.00 48 1007.4
20260504130621 13 299 3.2 8.0 0.00 0.00 0.00 54 1008.2
20260504130118 13 302 4.8 4.8 0.00 0.00 0.00 55 1008.3
20260504110509 5 279 0.0 1.6 0.00 0.00 0.00 79 1009.1
20260504100431 2 284 0.0 0.0 0.00 0.00 0.00 84 1009.1
20260504081824 1 270 0.0 0.0 0.00 0.00 0.00 88 1008.9
20260504081321 1 270 0.0 0.0 0.00 0.00 0.00 88 1008.8
20260504080816 1 270 0.0 0.0 0.00 0.00 0.00 89 1008.9
20260504080314 1 273 0.0 0.0 0.00 0.00 0.00 89 1009.1
20260504070241 1 270 0.0 0.0 0.00 0.00 0.00 84 1009.0
20260504060201 0 273 0.0 0.0 0.00 0.00 0.00 89 1008.7
20260504050629 0 272 0.0 0.0 0.00 0.00 0.00 87 1008.8
20260504050127 0 270 0.0 0.0 0.00 0.00 0.00 88 1008.6
20260504045624 0 271 0.0 0.0 0.00 0.00 0.00 90 1008.9
20260504045118 0 283 0.0 0.0 0.00 0.00 0.00 91 1008.8
20260504044616 0 269 0.0 0.0 0.00 0.00 0.00 92 1008.6
20260504044113 0 280 0.0 0.0 0.00 0.00 0.00 92 1008.9
20260504043610 0 269 0.0 0.0 0.00 0.00 0.00 92 1008.8
20260504043107 0 274 0.0 0.0 0.00 0.00 0.00 91 1008.8
20260504042604 0 268 0.0 0.0 0.00 0.00 0.00 91 1008.7
20260504042101 0 269 0.0 0.0 0.00 0.00 0.00 91 1008.6
20260504041557 0 272 0.0 0.0 0.00 0.00 0.00 90 1008.6
20260504041053 0 269 0.0 0.0 0.00 0.00 0.00 90 1008.6
20260504040551 0 270 0.0 0.0 0.00 0.00 0.00 89 1008.6
20260504040047 0 270 0.0 0.0 0.00 0.00 0.00 88 1008.6
20260504035544 0 269 0.0 0.0 0.00 0.00 0.00 87 1008.5
20260504035040 1 269 0.0 0.0 0.00 0.00 0.00 87 1008.5
20260504034539 1 268 0.0 0.0 0.00 0.00 0.00 86 1008.5
20260504034035 1 273 0.0 0.0 0.00 0.00 0.00 86 1008.4
20260504033533 1 273 0.0 0.0 0.00 0.00 0.00 85 1008.4
20260504033030 1 276 0.0 0.0 0.00 0.00 0.00 86 1008.3
20260504032527 1 270 0.0 0.0 0.00 0.00 0.00 83 1008.4
20260504032024 1 274 0.0 0.0 0.00 0.00 0.00 83 1008.3
20260504031521 1 274 0.0 0.0 0.00 0.00 0.00 83 1008.3
20260504031017 1 270 0.0 0.0 0.00 0.00 0.00 84 1008.2
20260504030515 1 269 0.0 0.0 0.00 0.00 0.00 84 1008.2
20260504030010 1 268 0.0 0.0 0.00 0.00 0.00 85 1008.5
20260504025508 1 276 0.0 1.6 0.00 0.00 0.00 84 1008.4
20260504025005 2 278 0.0 0.0 0.00 0.00 0.00 84 1008.3
20260504024502 2 276 0.0 0.0 0.00 0.00 0.00 83 1008.3
20260504023959 2 272 0.0 0.0 0.00 0.00 0.00 82 1008.3
20260504023455 2 274 0.0 0.0 0.00 0.00 0.00 82 1008.2
20260504022950 2 273 0.0 0.0 0.00 0.00 0.00 82 1008.3
20260504022447 2 272 0.0 0.0 0.00 0.00 0.00 80 1008.2
20260504021944 2 277 0.0 0.0 0.00 0.00 0.00 79 1008.3
20260504021441 2 277 0.0 0.0 0.00 0.00 0.00 79 1008.3
20260504020938 2 270 0.0 0.0 0.00 0.00 0.00 80 1008.3
20260504020434 2 272 0.0 0.0 0.00 0.00 0.00 79 1008.3
20260504015931 2 273 0.0 0.0 0.00 0.00 0.00 79 1008.3
20260504015427 2 272 0.0 0.0 0.00 0.00 0.00 79 1008.4
20260504014923 3 269 0.0 0.0 0.00 0.00 0.00 80 1008.1
20260504014420 3 272 0.0 0.0 0.00 0.00 0.00 78 1008.2
20260504013916 3 268 0.0 0.0 0.00 0.00 0.00 78 1008.3
20260504013415 3 268 0.0 0.0 0.00 0.00 0.00 76 1008.1
20260504012911 3 267 0.0 0.0 0.00 0.00 0.00 77 1008.1
20260504012409 3 266 0.0 0.0 0.00 0.00 0.00 76 1008.0
20260504011906 3 266 0.0 0.0 0.00 0.00 0.00 75 1008.0
20260504011403 3 266 0.0 0.0 0.00 0.00 0.00 75 1008.1
20260504010859 3 269 0.0 0.0 0.00 0.00 0.00 74 1007.9
20260504010355 3 266 0.0 1.6 0.00 0.00 0.00 74 1007.9
20260504005851 4 272 0.0 1.6 0.00 0.00 0.00 73 1007.9
20260504005348 3 276 0.0 0.0 0.00 0.00 0.00 74 1007.9
20260504004845 4 274 0.0 1.6 0.00 0.00 0.00 73 1007.6
20260504004343 4 273 0.0 0.0 0.00 0.00 0.00 73 1007.7
20260504003839 5 268 0.0 0.0 0.00 0.00 0.00 72 1007.7
20260504003336 5 270 0.0 0.0 0.00 0.00 0.00 68 1007.6
20260504002833 5 274 0.0 0.0 0.00 0.00 0.00 66 1007.5
20260504002330 6 274 0.0 0.0 0.00 0.00 0.00 63 1007.5
20260504001828 6 285 0.0 1.6 0.00 0.00 0.00 59 1007.4
20260504001325 7 286 1.6 1.6 0.00 0.00 0.00 56 1007.2
20260504000821 7 288 1.6 3.2 0.00 0.00 0.00 54 1007.3
20260504000318 7 280 1.6 3.2 0.00 0.00 0.00 53 1007.1
20260503235816 7 297 0.0 3.2 0.00 0.00 0.00 52 1007.1
20260503235314 7 283 1.6 4.8 0.00 0.00 0.00 52 1007.0
20260503234811 7 279 0.0 1.6 0.00 0.00 0.00 52 1007.0
20260503234309 8 213 3.2 9.7 0.00 0.00 0.00 50 1006.9